[[{"header":{"parameterUnit":"m.s-1","parameterCategory":2,"la1":30.2991,"la2":30.254,"lo1":-89.0895,"lo2":-89.0444,"dy":0.0017,"dx":0.0017,"nx":28,"ny":28,"refTime":"2023-08-03T09:00:00:Z","depth":"0","parameterNumber":2,"parameterNumberName":"U-component_of_CURRENTS"},"data":[0,0,0,0,0,0,0,0,0,0,0,0,0,0,0,0,0,0,0,0,0,0,0,0,0,0,0,0,0,0,0,0,0,0,0,0,0,0,0,0,0,0,0,0,0,0,0,0,0,0,0,0,0,0,0,0,0,0,-0.1592,-0.1594,0,-0.1702,-0.1702,-0.1703,-0.1674,-0.1673,-0.1672,-0.1671,-0.1702,-0.1704,-0.1706,0,0,0,0,0,0,0,0,0,0,0,0,0,-0.1419,-0.1421,-0.1592,-0.1594,-0.1597,-0.1702,-0.1702,-0.1703,-0.1675,-0.1673,-0.1671,-0.167,-0.1702,-0.1704,-0.1707,0,0,0,0,0,0,0,0,0,0,0,0,0,-0.1499,-0.1422,-0.1592,-0.1602,-0.1605,-0.1701,-0.1702,-0.1703,-0.1675,-0.1673,-0.1671,-0.1669,-0.1701,-0.1704,-0.1707,-0.1765,0,0,-0.1716,-0.1718,0,0,0,0,0,0,0,0,-0.1494,-0.1504,-0.1599,-0.1602,-0.1605,-0.1681,-0.1654,-0.1723,-0.1675,-0.1638,-0.1671,-0.1668,-0.1696,-0.1699,-0.1711,-0.1766,-0.1767,-0.1717,-0.1718,-0.172,-0.1721,0,0,0,0,0,0,0,-0.1489,-0.15,-0.1626,-0.1601,-0.1606,-0.1623,-0.163,-0.1666,-0.1668,-0.1641,-0.1642,-0.167,-0.1695,-0.1709,-0.1712,-0.1768,-0.1717,-0.1719,-0.1721,-0.1722,-0.1875,-0.1877,0,0,0,0,0,0,-0.1494,-0.1494,-0.1622,-0.163,-0.1555,-0.1628,-0.1636,-0.1651,-0.1669,-0.1673,-0.1672,-0.1669,-0.1704,-0.1708,-0.1713,-0.1752,-0.172,-0.1723,-0.1724,-0.1873,-0.1876,-0.1878,0,0,0,0,0,0,-0.149,-0.1504,-0.1618,-0.1573,-0.159,-0.1634,-0.165,-0.1654,-0.1664,-0.1695,-0.1695,-0.1678,-0.1703,-0.1709,-0.1744,-0.1753,-0.1724,-0.1727,-0.187,-0.1874,-0.1877,-0.1849,0,0,0,0,0,0,-0.1484,-0.1501,-0.1506,-0.1573,-0.1593,-0.1661,-0.1653,-0.1658,-0.1689,-0.1685,-0.1701,-0.1702,-0.1702,-0.174,-0.1747,-0.1757,-0.1729,-0.1868,-0.1872,-0.1876,-0.1847,-0.1851,-0.1854,0,0,0,0,0,-0.1477,-0.1485,-0.1505,-0.1521,-0.16,-0.1662,-0.1672,-0.1691,-0.1691,-0.1692,-0.1712,-0.1701,-0.1772,-0.1744,-0.1752,-0.1763,-0.1866,-0.1871,-0.1876,-0.1845,-0.185,-0.1854,0,0,0,0,0,0,-0.1408,-0.1487,-0.1509,-0.1539,-0.1596,-0.166,-0.1669,-0.1698,-0.1718,-0.1709,-0.1727,-0.1731,-0.1764,-0.1785,-0.1755,-0.1827,-0.1819,-0.1826,-0.1793,-0.1798,-0.1801,-0.1786,-0.1732,0,0,0,0,0,-0.1404,-0.143,-0.1509,-0.1536,-0.1558,-0.1618,-0.1646,-0.1668,-0.1707,-0.1712,-0.173,-0.176,-0.1798,-0.1811,-0.184,-0.1883,-0.1893,-0.1902,-0.1905,-0.1907,-0.1906,-0.1954,-0.1961,-0.1895,-0.1894,-0.1894,0,0,-0.139,-0.1438,-0.1453,-0.1525,-0.1562,-0.1602,-0.1625,-0.1666,-0.1697,-0.1716,-0.174,-0.1769,-0.1814,-0.185,-0.1869,-0.1863,-0.1929,-0.1914,-0.1915,-0.1912,-0.196,-0.1966,-0.1971,-0.1898,-0.1897,-0.1897,0,0,-0.1382,-0.1411,-0.1432,-0.1476,-0.1548,-0.1586,-0.1601,-0.1666,-0.1679,-0.1733,-0.1751,-0.179,-0.1846,-0.1873,-0.19,-0.1953,-0.1945,-0.1966,-0.1967,-0.2014,-0.2019,-0.2023,-0.2016,-0.202,-0.1968,-0.1968,-0.1968,0,-0.137,-0.1402,-0.1448,-0.1483,-0.1515,-0.1579,-0.1606,-0.1646,-0.1714,-0.1731,-0.1733,-0.1839,-0.186,-0.1927,-0.1932,-0.1956,-0.1964,-0.1935,-0.2014,-0.2019,-0.2024,-0.2016,-0.202,-0.1967,-0.1967,-0.1967,-0.1967,0,-0.1388,-0.1409,-0.1421,-0.1483,-0.1518,-0.1552,-0.1618,-0.1649,-0.1683,-0.1726,-0.1792,-0.1846,-0.1907,-0.1927,-0.1938,-0.1995,-0.1981,-0.2006,-0.1989,-0.2028,-0.2018,-0.2023,-0.1966,-0.1966,-0.1967,-0.1967,0,0,-0.1385,-0.1426,-0.1432,-0.1444,-0.1517,-0.1549,-0.1593,-0.1653,-0.169,-0.1753,-0.1803,-0.1875,-0.1906,-0.1941,-0.1979,-0.2016,-0.2037,-0.2016,-0.2019,-0.1981,-0.2101,-0.2072,-0.2074,-0.2073,-0.2074,-0.2075,-0.2067,0,-0.139,-0.1423,-0.1448,-0.1478,-0.1495,-0.1548,-0.1588,-0.1647,-0.1701,-0.1761,-0.1834,-0.1896,-0.1916,-0.195,-0.1993,-0.2033,-0.2055,-0.2034,-0.2093,-0.2093,-0.2042,-0.2083,-0.2054,-0.2045,-0.2072,-0.2073,-0.2074,0,-0.1404,-0.1423,-0.1435,-0.1464,-0.1477,-0.1506,-0.1569,-0.1614,-0.1707,-0.1754,-0.1834,-0.1891,-0.1962,-0.1981,-0.2065,-0.2049,-0.2067,-0.2093,-0.2094,-0.2083,-0.2076,-0.2021,-0.2053,-0.1978,-0.2082,-0.2081,-0.2081,0,-0.1368,-0.141,-0.1406,-0.1422,-0.1475,-0.1487,-0.1521,-0.1604,-0.1656,-0.1748,-0.18,-0.1898,-0.1959,-0.2014,-0.2061,-0.2065,-0.2136,-0.2154,-0.2144,-0.214,-0.2136,-0.2129,-0.2083,-0.221,-0.221,-0.221,-0.221,0,-0.1356,-0.1359,-0.1389,-0.1389,-0.1413,-0.1452,-0.1494,-0.1551,-0.165,-0.1724,-0.1791,-0.1884,-0.1973,-0.203,-0.206,-0.2109,-0.2139,-0.2143,-0.215,-0.2123,-0.2116,-0.2068,-0.2031,-0.2209,-0.2209,-0.2209,-0.2209,0,-0.1315,-0.1328,-0.1334,-0.1371,-0.1388,-0.1404,-0.1484,-0.1532,-0.1612,-0.1717,-0.1748,-0.1876,-0.1945,-0.2001,-0.2084,-0.2109,-0.2105,-0.2157,-0.2088,-0.2087,-0.2014,-0.1978,-0.1969,-0.1899,-0.215,-0.215,-0.2149,0,-0.1298,-0.1289,-0.1314,-0.1326,-0.134,-0.1378,-0.142,-0.1511,-0.1583,-0.1728,-0.1788,-0.1873,-0.196,-0.2036,-0.2087,-0.2118,-0.2069,-0.2095,-0.2114,-0.2001,-0.1967,-0.1958,-0.1898,-0.2082,-0.2081,-0.208,-0.2079,0,-0.1277,-0.1274,-0.1278,-0.1295,-0.1324,-0.1368,-0.1437,-0.1501,-0.1623,-0.1716,-0.1852,-0.1918,-0.1999,-0.2062,-0.2077,-0.2079,-0.2012,-0.2079,-0.2007,-0.1943,-0.189,-0.1828,-0.205,-0.2072,-0.2073,-0.2073,-0.2074,-0.2074,-0.1269,-0.1264,-0.1261,-0.1274,-0.1309,-0.1361,-0.1381,-0.1494,-0.1604,-0.175,-0.1862,-0.1959,-0.205,-0.2092,-0.2051,-0.1968,-0.1975,-0.1934,-0.1905,-0.1909,-0.1832,-0.2006,-0.2016,-0.2016,-0.2016,-0.2017,-0.2017,0,-0.1273,-0.1256,-0.1253,-0.1261,-0.1279,-0.1308,-0.1396,-0.1425,-0.1538,-0.1711,-0.1831,-0.2011,-0.2034,-0.2034,-0.2001,-0.1852,-0.1788,-0.1737,-0.1713,-0.1664,-0.186,-0.1844,-0.1765,-0.1765,-0.1765,-0.1765,-0.1765,-0.1765,-0.1274,-0.1255,-0.1234,-0.1232,-0.1238,-0.1242,-0.1276,-0.134,-0.1444,-0.1626,-0.1779,-0.1926,-0.1959,-0.2015,-0.183,-0.1702,-0.1558,-0.1521,-0.1454,-0.1582,-0.1598,-0.1613,-0.1589,-0.1458,-0.1458,-0.1255,-0.1253,-0.1252]},{"header":{"parameterUnit":"m.s-1","parameterCategory":2,"la1":30.2991,"la2":30.254,"lo1":-89.0895,"lo2":-89.0444,"dy":0.0017,"dx":0.0017,"nx":28,"ny":28,"refTime":"2023-08-03T09:00:00:Z","depth":"0","parameterNumber":3,"parameterNumberName":"V-component_of_CURRENTS"},"data":[0,0,0,0,0,0,0,0,0,0,0,0,0,0,0,0,0,0,0,0,0,0,0,0,0,0,0,0,0,0,0,0,0,0,0,0,0,0,0,0,0,0,0,0,0,0,0,0,0,0,0,0,0,0,0,0,0,0,-0.1834,-0.1834,0,-0.178,-0.1779,-0.1778,-0.1741,-0.1741,-0.174,-0.174,-0.1488,-0.1482,-0.1475,0,0,0,0,0,0,0,0,0,0,0,0,0,-0.1853,-0.1853,-0.1834,-0.1834,-0.1833,-0.178,-0.1779,-0.1778,-0.1741,-0.1741,-0.174,-0.174,-0.149,-0.1483,-0.1475,0,0,0,0,0,0,0,0,0,0,0,0,0,-0.1826,-0.1853,-0.1834,-0.1809,-0.1806,-0.178,-0.1779,-0.1778,-0.1741,-0.1741,-0.174,-0.174,-0.1493,-0.1483,-0.1474,-0.1419,0,0,-0.1444,-0.1439,0,0,0,0,0,0,0,0,-0.1827,-0.1825,-0.1813,-0.181,-0.1807,-0.1768,-0.1693,-0.1648,-0.1741,-0.1764,-0.174,-0.174,-0.1564,-0.1548,-0.154,-0.1407,-0.1396,-0.1443,-0.1437,-0.1433,-0.143,0,0,0,0,0,0,0,-0.1829,-0.1827,-0.1811,-0.1813,-0.1809,-0.1782,-0.1778,-0.1685,-0.1662,-0.1762,-0.176,-0.1755,-0.1561,-0.155,-0.1533,-0.1392,-0.1443,-0.1434,-0.1428,-0.1424,-0.1227,-0.1228,0,0,0,0,0,0,-0.1841,-0.1829,-0.1813,-0.181,-0.1818,-0.1782,-0.1778,-0.178,-0.1667,-0.1652,-0.1756,-0.1754,-0.1567,-0.1545,-0.1524,-0.1467,-0.1433,-0.1424,-0.1418,-0.1226,-0.1227,-0.1228,0,0,0,0,0,0,-0.1842,-0.1841,-0.1815,-0.1818,-0.1813,-0.1783,-0.1785,-0.1779,-0.176,-0.1665,-0.1645,-0.1742,-0.1566,-0.1538,-0.1466,-0.1456,-0.1419,-0.141,-0.1226,-0.1227,-0.1228,-0.1341,0,0,0,0,0,0,-0.1843,-0.1841,-0.1842,-0.182,-0.1814,-0.1797,-0.1785,-0.1778,-0.1758,-0.1755,-0.1645,-0.1623,-0.1563,-0.1482,-0.1457,-0.1441,-0.1403,-0.1225,-0.1226,-0.1227,-0.1336,-0.1346,-0.1353,0,0,0,0,0,-0.1844,-0.1835,-0.1843,-0.184,-0.1818,-0.1797,-0.1791,-0.1767,-0.1758,-0.1748,-0.1699,-0.1626,-0.1471,-0.1475,-0.1445,-0.1426,-0.1224,-0.1226,-0.1227,-0.1332,-0.1344,-0.1353,0,0,0,0,0,0,-0.1838,-0.183,-0.1838,-0.1827,-0.1818,-0.1791,-0.1782,-0.1765,-0.172,-0.1717,-0.1629,-0.1603,-0.1539,-0.147,-0.1476,-0.1377,-0.1336,-0.1332,-0.1426,-0.1435,-0.1444,-0.1439,-0.1394,0,0,0,0,0,-0.1843,-0.1835,-0.183,-0.1821,-0.1826,-0.1806,-0.1793,-0.1781,-0.1744,-0.1725,-0.1656,-0.1585,-0.1523,-0.1472,-0.1405,-0.1337,-0.1258,-0.1309,-0.1317,-0.1325,-0.1303,-0.1196,-0.1193,-0.1233,-0.1233,-0.1233,0,0,-0.1834,-0.1832,-0.1826,-0.182,-0.1817,-0.182,-0.1797,-0.1785,-0.1778,-0.1698,-0.166,-0.1605,-0.1515,-0.1463,-0.1425,-0.1399,-0.128,-0.1327,-0.1334,-0.1307,-0.1197,-0.1193,-0.1189,-0.1234,-0.1233,-0.1233,0,0,-0.1818,-0.1826,-0.182,-0.1826,-0.1827,-0.182,-0.1817,-0.1798,-0.1783,-0.1743,-0.1701,-0.1647,-0.1536,-0.1487,-0.1443,-0.1448,-0.1335,-0.1426,-0.1448,-0.1347,-0.1342,-0.1336,-0.1262,-0.1249,-0.1422,-0.1422,-0.1423,0,-0.181,-0.1815,-0.1812,-0.1825,-0.1831,-0.1824,-0.1829,-0.1817,-0.1772,-0.1752,-0.1739,-0.1608,-0.1545,-0.1473,-0.1498,-0.1462,-0.1395,-0.142,-0.1356,-0.1349,-0.1341,-0.1266,-0.1251,-0.1428,-0.1427,-0.1427,-0.1426,0,-0.1803,-0.1816,-0.1819,-0.1838,-0.1838,-0.1844,-0.1844,-0.1838,-0.1819,-0.1789,-0.172,-0.165,-0.1565,-0.1551,-0.1526,-0.145,-0.1419,-0.1388,-0.1331,-0.1344,-0.1265,-0.1246,-0.1436,-0.1434,-0.1432,-0.1431,0,0,-0.1766,-0.1804,-0.1809,-0.1829,-0.1853,-0.1849,-0.1859,-0.1846,-0.1832,-0.1785,-0.1733,-0.1667,-0.1622,-0.1571,-0.1526,-0.1451,-0.1375,-0.1408,-0.14,-0.1336,-0.116,-0.1206,-0.1189,-0.1329,-0.1326,-0.1323,-0.1138,0,-0.1766,-0.1795,-0.1807,-0.1831,-0.1854,-0.1869,-0.1876,-0.1863,-0.1831,-0.1782,-0.1709,-0.1632,-0.163,-0.1582,-0.1518,-0.1386,-0.1325,-0.1428,-0.1153,-0.1145,-0.1184,-0.1168,-0.119,-0.1032,-0.1119,-0.1116,-0.1114,0,-0.1767,-0.1787,-0.1818,-0.1849,-0.1859,-0.1864,-0.1872,-0.187,-0.1821,-0.1789,-0.1713,-0.1638,-0.1527,-0.1522,-0.131,-0.1372,-0.1285,-0.1196,-0.1186,-0.1165,-0.1154,-0.1024,-0.0993,-0.0815,-0.1084,-0.1086,-0.1089,0,-0.1764,-0.1794,-0.1819,-0.1838,-0.187,-0.1876,-0.188,-0.1863,-0.1846,-0.1766,-0.1708,-0.1588,-0.1484,-0.135,-0.121,-0.1234,-0.0974,-0.0972,-0.0935,-0.0938,-0.0867,-0.087,-0.0625,-0.0832,-0.0832,-0.0833,-0.0833,0,-0.1777,-0.1791,-0.1819,-0.1843,-0.1852,-0.1872,-0.1864,-0.1861,-0.1818,-0.177,-0.1693,-0.1602,-0.1431,-0.1279,-0.1173,-0.0997,-0.0937,-0.0922,-0.0882,-0.0915,-0.0924,-0.0694,-0.053,-0.0826,-0.0827,-0.0828,-0.083,0,-0.1774,-0.1804,-0.1831,-0.186,-0.186,-0.1866,-0.1858,-0.1852,-0.1808,-0.1733,-0.1691,-0.1558,-0.1368,-0.1221,-0.0984,-0.0934,-0.0642,-0.0736,-0.0813,-0.0788,-0.0617,-0.0458,-0.0096,-0.0001,-0.0639,-0.0639,-0.0639,0,-0.1768,-0.1788,-0.1834,-0.1843,-0.1851,-0.1855,-0.1865,-0.1852,-0.1835,-0.1702,-0.1658,-0.1466,-0.1367,-0.1066,-0.0932,-0.0753,-0.0575,-0.0663,-0.0726,-0.0592,-0.0382,-0.0291,-0.0231,-0.0674,-0.0675,-0.0675,-0.0675,0,-0.1736,-0.1768,-0.1794,-0.1834,-0.1845,-0.1862,-0.186,-0.1849,-0.1818,-0.1752,-0.1633,-0.1533,-0.1284,-0.1131,-0.0935,-0.08,-0.0491,-0.0665,-0.0464,-0.0333,-0.0265,-0.0164,-0.083,-0.0676,-0.0676,-0.0676,-0.0676,-0.0676,-0.1689,-0.1707,-0.1762,-0.1798,-0.1827,-0.1866,-0.1876,-0.188,-0.1863,-0.1808,-0.1683,-0.1608,-0.1334,-0.1077,-0.0893,-0.0544,-0.0474,-0.0444,-0.0246,-0.0158,-0.0104,-0.0809,-0.0664,-0.0664,-0.0664,-0.0664,-0.0663,0,-0.161,-0.1657,-0.1708,-0.177,-0.1819,-0.1844,-0.1872,-0.1891,-0.1891,-0.1926,-0.1859,-0.1656,-0.133,-0.0989,-0.0488,-0.0193,-0.0098,0.002,0.0184,0.0234,-0.034,-0.0389,-0.0253,-0.0253,-0.0253,-0.0254,-0.0254,-0.0254,-0.1563,-0.1597,-0.1663,-0.1744,-0.1793,-0.1856,-0.1879,-0.1913,-0.1975,-0.2005,-0.2003,-0.1958,-0.1226,-0.0263,0.0341,0.0394,0.0681,0.0703,0.0876,0.0506,0.0477,0.045,0.0436,0.0743,0.0745,0.1319,0.1326,0.1331]}],[{"header":{"parameterUnit":"m.s-1","parameterCategory":2,"la1":30.2991,"la2":30.254,"lo1":-89.0895,"lo2":-89.0444,"dy":0.0017,"dx":0.0017,"nx":28,"ny":28,"refTime":"2023-08-03T09:00:00:Z","depth":"2","parameterNumber":2,"parameterNumberName":"U-component_of_CURRENTS"},"data":[0,0,0,0,0,0,0,0,0,0,0,0,0,0,0,0,0,0,0,0,0,0,0,0,0,0,0,0,0,0,0,0,0,0,0,0,0,0,0,0,0,0,0,0,0,0,0,0,0,0,0,0,0,0,0,0,0,0,-0.2687,-0.269,0,-0.2869,-0.287,-0.2871,-0.2867,-0.2866,-0.2865,-0.2864,-0.2863,-0.2864,-0.2865,0,0,0,0,0,0,0,0,0,0,0,0,0,-0.2316,-0.2322,-0.2686,-0.269,-0.2693,-0.2869,-0.287,-0.2872,-0.2868,-0.2866,-0.2865,-0.2863,-0.2862,-0.2864,-0.2865,0,0,0,0,0,0,0,0,0,0,0,0,0,-0.2474,-0.2324,-0.2686,-0.2722,-0.2728,-0.2869,-0.287,-0.2872,-0.2868,-0.2866,-0.2864,-0.2862,-0.2862,-0.2864,-0.2865,-0.2916,0,0,-0.2871,-0.2872,0,0,0,0,0,0,0,0,-0.2465,-0.2485,-0.2713,-0.272,-0.2727,-0.2855,-0.274,-0.2882,-0.2869,-0.2801,-0.2864,-0.2861,-0.2853,-0.2855,-0.2878,-0.2916,-0.2915,-0.2871,-0.2872,-0.2873,-0.2873,0,0,0,0,0,0,0,-0.2454,-0.2478,-0.2746,-0.2717,-0.2726,-0.2724,-0.2743,-0.2767,-0.2822,-0.2807,-0.281,-0.2852,-0.2853,-0.2877,-0.2878,-0.2915,-0.2871,-0.2872,-0.2874,-0.2874,-0.2876,-0.2875,0,0,0,0,0,0,-0.2461,-0.2469,-0.274,-0.2753,-0.2603,-0.2733,-0.2754,-0.2805,-0.2826,-0.2833,-0.2853,-0.2851,-0.2875,-0.2876,-0.2878,-0.286,-0.2873,-0.2874,-0.2875,-0.2877,-0.2876,-0.2875,0,0,0,0,0,0,-0.2453,-0.2484,-0.2733,-0.2623,-0.2656,-0.2743,-0.28,-0.281,-0.2845,-0.2866,-0.2865,-0.288,-0.2873,-0.2875,-0.288,-0.2862,-0.2875,-0.2877,-0.2878,-0.2877,-0.2875,-0.2874,0,0,0,0,0,0,-0.2441,-0.248,-0.2539,-0.2625,-0.2663,-0.2804,-0.2804,-0.2816,-0.2879,-0.2878,-0.2889,-0.2887,-0.2872,-0.2878,-0.2882,-0.2865,-0.2878,-0.288,-0.2878,-0.2876,-0.2875,-0.2872,-0.287,0,0,0,0,0,-0.2428,-0.2523,-0.2541,-0.2575,-0.2736,-0.2806,-0.2823,-0.2868,-0.2883,-0.2892,-0.2891,-0.2887,-0.2867,-0.288,-0.2885,-0.2867,-0.2881,-0.2878,-0.2876,-0.2876,-0.2873,-0.287,0,0,0,0,0,0,-0.2411,-0.2536,-0.2556,-0.2689,-0.2734,-0.2809,-0.2866,-0.2886,-0.2903,-0.2903,-0.2898,-0.2895,-0.2882,-0.2883,-0.2897,-0.2857,-0.2865,-0.2863,-0.2863,-0.286,-0.2857,-0.285,-0.288,0,0,0,0,0,-0.2435,-0.2531,-0.2609,-0.2717,-0.2743,-0.2803,-0.2851,-0.2866,-0.2897,-0.2906,-0.2901,-0.2893,-0.288,-0.2878,-0.2865,-0.2873,-0.2847,-0.2855,-0.2853,-0.2851,-0.2845,-0.2787,-0.2779,-0.2867,-0.2867,-0.2867,0,0,-0.2451,-0.255,-0.2597,-0.2719,-0.2766,-0.2789,-0.2822,-0.2891,-0.2889,-0.2903,-0.2896,-0.2892,-0.288,-0.286,-0.2854,-0.286,-0.2812,-0.2848,-0.2846,-0.2842,-0.2784,-0.2775,-0.2768,-0.2866,-0.2866,-0.2866,0,0,-0.2515,-0.2619,-0.2687,-0.272,-0.2805,-0.2825,-0.2842,-0.2892,-0.289,-0.2895,-0.2886,-0.2871,-0.287,-0.284,-0.2831,-0.2815,-0.2799,-0.2813,-0.2801,-0.2745,-0.2738,-0.2731,-0.269,-0.2679,-0.2813,-0.2813,-0.2813,0,-0.254,-0.2633,-0.2712,-0.2761,-0.2793,-0.2831,-0.2849,-0.2858,-0.2889,-0.2884,-0.2878,-0.2854,-0.2848,-0.2818,-0.2803,-0.2808,-0.2784,-0.2819,-0.2742,-0.2735,-0.2728,-0.2687,-0.2675,-0.2813,-0.2813,-0.2813,-0.2813,0,-0.2598,-0.2673,-0.2718,-0.2778,-0.2809,-0.2847,-0.2851,-0.2855,-0.2859,-0.2853,-0.2826,-0.2811,-0.2793,-0.2783,-0.2795,-0.2744,-0.2747,-0.2746,-0.2753,-0.2719,-0.2678,-0.2666,-0.2812,-0.2813,-0.2813,-0.2813,0,0,-0.2653,-0.2741,-0.2752,-0.277,-0.2817,-0.2846,-0.2836,-0.2835,-0.2835,-0.281,-0.2794,-0.2759,-0.2759,-0.2748,-0.275,-0.2707,-0.2642,-0.2714,-0.2711,-0.2679,-0.2529,-0.247,-0.2451,-0.2633,-0.2631,-0.2629,-0.2523,0,-0.2669,-0.2747,-0.2779,-0.2807,-0.2832,-0.2843,-0.2832,-0.2829,-0.2818,-0.2801,-0.2765,-0.2743,-0.2742,-0.2742,-0.2697,-0.2666,-0.2609,-0.2671,-0.2563,-0.2559,-0.2514,-0.2434,-0.2229,-0.2112,-0.2511,-0.2509,-0.2508,0,-0.2689,-0.2751,-0.2778,-0.2826,-0.2835,-0.2828,-0.2831,-0.2826,-0.2799,-0.2795,-0.2761,-0.2745,-0.2692,-0.269,-0.2583,-0.2629,-0.2574,-0.2535,-0.253,-0.2465,-0.2475,-0.2209,-0.2074,-0.2487,-0.2489,-0.249,-0.2492,0,-0.2672,-0.2745,-0.2769,-0.278,-0.2823,-0.2817,-0.2821,-0.281,-0.2808,-0.2778,-0.2772,-0.2715,-0.2678,-0.2602,-0.253,-0.2557,-0.2404,-0.2427,-0.2309,-0.2306,-0.2102,-0.2084,-0.2316,-0.2316,-0.2316,-0.2317,-0.2317,0,-0.2685,-0.2702,-0.2756,-0.2767,-0.2778,-0.2805,-0.2796,-0.2799,-0.2793,-0.2776,-0.2759,-0.2722,-0.2651,-0.2569,-0.2509,-0.2362,-0.2374,-0.2279,-0.2257,-0.2097,-0.2081,-0.239,-0.24,-0.2313,-0.2314,-0.2314,-0.2315,0,-0.2644,-0.2691,-0.2716,-0.276,-0.2766,-0.2762,-0.2776,-0.2771,-0.2778,-0.2753,-0.2741,-0.2703,-0.2594,-0.2515,-0.2385,-0.2316,-0.22,-0.2141,-0.1969,-0.1928,-0.2151,-0.2162,-0.1999,-0.1996,-0.1993,-0.1991,-0.1989,0,-0.2619,-0.2632,-0.2684,-0.2695,-0.2703,-0.2708,-0.2706,-0.2739,-0.2731,-0.2726,-0.2699,-0.2616,-0.2525,-0.2322,-0.219,-0.2041,-0.2097,-0.1748,-0.1751,-0.2114,-0.211,-0.2126,-0.2141,-0.1481,-0.1475,-0.147,-0.1466,0,-0.2555,-0.2571,-0.2597,-0.2625,-0.263,-0.2653,-0.265,-0.2644,-0.2671,-0.2615,-0.2553,-0.2488,-0.2345,-0.2074,-0.1892,-0.1781,-0.1765,-0.1645,-0.201,-0.1616,-0.1622,-0.1622,-0.1652,-0.1423,-0.1427,-0.143,-0.1433,-0.1434,-0.2475,-0.2477,-0.2514,-0.2522,-0.2554,-0.2563,-0.2517,-0.2487,-0.2421,-0.2278,-0.2355,-0.215,-0.2022,-0.1662,-0.1521,-0.1405,-0.1544,-0.1385,-0.1401,-0.1421,-0.1402,-0.1406,-0.1162,-0.1165,-0.1167,-0.1169,-0.1171,0,-0.236,-0.2374,-0.2401,-0.2423,-0.2417,-0.2472,-0.2448,-0.2296,-0.2106,-0.2032,-0.1905,-0.1598,-0.1373,-0.1297,-0.108,-0.1011,-0.1022,-0.0911,-0.0902,-0.0942,-0.0979,-0.0941,-0.0577,-0.0576,-0.0575,-0.0574,0,0,-0.2298,-0.2285,-0.2307,-0.2268,-0.2277,-0.2189,-0.214,-0.1861,-0.172,-0.1448,-0.1321,-0.1315,-0.1283,-0.0953,-0.0822,-0.0687,-0.083,-0.0638,-0.1101,-0.1133,-0.1171,-0.1217,-0.1198,0,0,0,0,0]},{"header":{"parameterUnit":"m.s-1","parameterCategory":2,"la1":30.2991,"la2":30.254,"lo1":-89.0895,"lo2":-89.0444,"dy":0.0017,"dx":0.0017,"nx":28,"ny":28,"refTime":"2023-08-03T09:00:00:Z","depth":"2","parameterNumber":3,"parameterNumberName":"V-component_of_CURRENTS"},"data":[0,0,0,0,0,0,0,0,0,0,0,0,0,0,0,0,0,0,0,0,0,0,0,0,0,0,0,0,0,0,0,0,0,0,0,0,0,0,0,0,0,0,0,0,0,0,0,0,0,0,0,0,0,0,0,0,0,0,0.0393,0.0396,0,0.058,0.0581,0.0583,0.0633,0.0632,0.0632,0.0632,0.0791,0.0796,0.0801,0,0,0,0,0,0,0,0,0,0,0,0,0,0.0174,0.0176,0.0393,0.0396,0.0399,0.0579,0.0581,0.0583,0.0633,0.0632,0.0632,0.0631,0.079,0.0795,0.0801,0,0,0,0,0,0,0,0,0,0,0,0,0,0.0299,0.0177,0.0393,0.045,0.0458,0.0579,0.0581,0.0584,0.0633,0.0632,0.0632,0.0631,0.0788,0.0795,0.0802,0.0861,0,0,0.0823,0.0827,0,0,0,0,0,0,0,0,0.0292,0.0306,0.0439,0.0447,0.0455,0.0588,0.0563,0.0677,0.0633,0.056,0.0631,0.0631,0.0726,0.0738,0.0766,0.0868,0.0875,0.0824,0.0828,0.0831,0.0833,0,0,0,0,0,0,0,0.0283,0.0299,0.046,0.0442,0.0453,0.05,0.0515,0.0585,0.0639,0.0566,0.0572,0.0603,0.0729,0.0759,0.077,0.0877,0.0824,0.083,0.0835,0.0837,0.097,0.0969,0,0,0,0,0,0,0.027,0.0291,0.0455,0.0467,0.0377,0.0504,0.0521,0.0541,0.0639,0.0656,0.0604,0.0605,0.0747,0.0762,0.0776,0.0798,0.0831,0.0838,0.0842,0.0971,0.097,0.0969,0,0,0,0,0,0,0.0264,0.0282,0.0447,0.0389,0.0414,0.0509,0.0531,0.0545,0.058,0.0669,0.0683,0.0625,0.0747,0.0766,0.0826,0.0806,0.0841,0.0848,0.0972,0.0971,0.097,0.0876,0,0,0,0,0,0,0.0256,0.0278,0.0297,0.0387,0.0417,0.0497,0.0533,0.055,0.0604,0.0607,0.0692,0.0706,0.0748,0.0815,0.0833,0.0816,0.0853,0.0973,0.0971,0.097,0.088,0.0872,0.0865,0,0,0,0,0,0.0248,0.027,0.0296,0.0317,0.0435,0.0498,0.0515,0.0577,0.0605,0.0607,0.0669,0.0704,0.0818,0.0822,0.0843,0.0827,0.0973,0.0972,0.097,0.0883,0.0873,0.0865,0,0,0,0,0,0,0.019,0.0281,0.031,0.0361,0.0416,0.0508,0.0542,0.0581,0.0635,0.0644,0.0716,0.0734,0.0764,0.0819,0.0821,0.0858,0.0894,0.0896,0.0821,0.0812,0.0805,0.0804,0.0859,0,0,0,0,0,0.0187,0.0231,0.0307,0.0353,0.0377,0.046,0.0501,0.0534,0.0598,0.0622,0.0674,0.0732,0.0776,0.0813,0.0852,0.0903,0.0943,0.0899,0.0891,0.0884,0.0897,0.0974,0.0975,0.0964,0.0964,0.0964,0,0,0.0171,0.0243,0.0261,0.0346,0.0401,0.0422,0.048,0.0532,0.0548,0.0634,0.0666,0.0707,0.078,0.0808,0.0828,0.0855,0.0892,0.0882,0.0876,0.0893,0.0972,0.0974,0.0975,0.0963,0.0963,0.0963,0,0,0.0168,0.0229,0.0251,0.0287,0.037,0.0414,0.0424,0.0493,0.0518,0.0558,0.0609,0.0655,0.0721,0.0772,0.0808,0.0797,0.0839,0.0787,0.0769,0.0842,0.0844,0.0847,0.0826,0.0828,0.0797,0.0797,0.0797,0,0.0162,0.0193,0.0265,0.029,0.0325,0.04,0.0407,0.0446,0.0519,0.0551,0.0547,0.0657,0.0708,0.078,0.0752,0.0782,0.0797,0.0796,0.0833,0.0837,0.0842,0.0821,0.0824,0.0792,0.0793,0.0793,0.0794,0,0.0149,0.0178,0.0197,0.0251,0.0287,0.0313,0.0365,0.0391,0.0429,0.0474,0.0529,0.0597,0.0669,0.0673,0.0709,0.0759,0.0744,0.0802,0.0856,0.0837,0.0815,0.082,0.0785,0.0787,0.0789,0.079,0,0,0.0148,0.018,0.019,0.02,0.0267,0.0298,0.0322,0.0378,0.0417,0.0453,0.0504,0.056,0.0602,0.0647,0.0698,0.0758,0.0763,0.0779,0.0785,0.0755,0.0849,0.0809,0.081,0.0828,0.083,0.0832,0.0794,0,0.0129,0.0134,0.017,0.0181,0.0181,0.0249,0.0274,0.0333,0.0386,0.0441,0.0522,0.0572,0.0592,0.0619,0.0681,0.0754,0.0784,0.0763,0.0876,0.0878,0.0845,0.082,0.0819,0.0786,0.0799,0.08,0.0801,0,0.0109,0.0121,0.01,0.0147,0.0159,0.0172,0.0251,0.0281,0.0376,0.0414,0.0485,0.0546,0.062,0.0645,0.0755,0.0735,0.0774,0.0825,0.0827,0.0839,0.0851,0.0824,0.0796,0.081,0.081,0.0809,0.0808,0,0.0064,0.0088,0.0071,0.0079,0.0124,0.0143,0.0181,0.0268,0.0301,0.0393,0.0418,0.0532,0.0567,0.0666,0.0729,0.0748,0.0836,0.0892,0.0884,0.0878,0.0929,0.0925,0.0974,0.0974,0.0974,0.0974,0.0974,0,0.0036,0.0037,0.0041,0.003,0.0036,0.0093,0.0125,0.0179,0.0255,0.0288,0.039,0.0428,0.0578,0.0642,0.0717,0.0784,0.0823,0.0869,0.0886,0.0884,0.0877,0.0966,0.0966,0.0973,0.0973,0.0973,0.0974,0,-0.0008,-0.001,-0.0027,-0.0005,0.0003,0.0004,0.0057,0.008,0.0155,0.0197,0.0212,0.0338,0.0415,0.053,0.0674,0.0745,0.0837,0.0848,0.0778,0.0789,0.0822,0.0818,0.0854,0.0852,0.0851,0.085,0.0849,0,-0.0024,-0.0053,-0.0074,-0.0098,-0.0093,-0.0084,-0.0077,0.0006,0.003,0.0134,0.0143,0.0232,0.0292,0.0451,0.0619,0.0733,0.0759,0.078,0.0853,0.0807,0.082,0.0817,0.0813,0.0844,0.0843,0.0842,0.0842,0,-0.0059,-0.0083,-0.0112,-0.0183,-0.0199,-0.0203,-0.0185,-0.0188,-0.0093,-0.0086,-0.0038,0.0021,0.0238,0.0403,0.0568,0.0647,0.0772,0.077,0.0785,0.0873,0.0797,0.0809,0.0807,0.0836,0.0837,0.0837,0.0838,0.0838,-0.0078,-0.013,-0.0198,-0.0262,-0.0293,-0.0332,-0.0355,-0.035,-0.0368,-0.0317,-0.0211,-0.0083,0.0157,0.0418,0.0531,0.0688,0.0732,0.0786,0.0789,0.0793,0.0798,0.0725,0.0745,0.0745,0.0745,0.0745,0.0745,0,-0.0107,-0.0185,-0.0264,-0.0353,-0.043,-0.0406,-0.0429,-0.046,-0.054,-0.0406,-0.0365,-0.0154,0.0081,0.0342,0.0614,0.0734,0.0754,0.0717,0.0751,0.0756,0.0762,0.0766,0.0705,0.0704,0.0704,0.0703,0,0,-0.0122,-0.0233,-0.0306,-0.0466,-0.0524,-0.0598,-0.0629,-0.0679,-0.0598,-0.0573,-0.0411,-0.0181,0.017,0.0305,0.047,0.0619,0.0638,0.0606,0.0637,0.0664,0.0667,0.0811,0.0826,0,0,0,0,0]}],[{"header":{"parameterUnit":"m.s-1","parameterCategory":2,"la1":30.2991,"la2":30.254,"lo1":-89.0895,"lo2":-89.0444,"dy":0.0017,"dx":0.0017,"nx":28,"ny":28,"refTime":"2023-08-03T09:00:00:Z","depth":"4","parameterNumber":2,"parameterNumberName":"U-component_of_CURRENTS"},"data":[0,0,0,0,0,0,0,0,0,0,0,0,0,0,0,0,0,0,0,0,0,0,0,0,0,0,0,0,0,0,0,0,0,0,0,0,0,0,0,0,0,0,0,0,0,0,0,0,0,0,0,0,0,0,0,0,0,0,-0.1277,-0.1277,0,-0.1324,-0.1325,-0.1326,-0.1384,-0.1384,-0.1384,-0.1385,-0.1424,-0.1425,-0.1425,0,0,0,0,0,0,0,0,0,0,0,0,0,-0.1258,-0.1258,-0.1277,-0.1277,-0.1277,-0.1324,-0.1325,-0.1326,-0.1384,-0.1384,-0.1385,-0.1385,-0.1424,-0.1425,-0.1425,0,0,0,0,0,0,0,0,0,0,0,0,0,-0.1286,-0.1258,-0.1277,-0.1307,-0.131,-0.1324,-0.1325,-0.1327,-0.1383,-0.1384,-0.1385,-0.1385,-0.1424,-0.1425,-0.1426,-0.1419,0,0,-0.1429,-0.1429,0,0,0,0,0,0,0,0,-0.1285,-0.1288,-0.1303,-0.1305,-0.1308,-0.1344,-0.1333,-0.1355,-0.1383,-0.1361,-0.1385,-0.1386,-0.1393,-0.1396,-0.1411,-0.1421,-0.1422,-0.1429,-0.1429,-0.143,-0.143,0,0,0,0,0,0,0,-0.1283,-0.1286,-0.1301,-0.1303,-0.1306,-0.1326,-0.1331,-0.1338,-0.1377,-0.1363,-0.1366,-0.1363,-0.1395,-0.141,-0.1412,-0.1423,-0.1429,-0.1429,-0.143,-0.143,-0.1536,-0.1538,0,0,0,0,0,0,-0.1265,-0.1284,-0.1299,-0.1302,-0.1292,-0.1325,-0.1331,-0.1336,-0.1377,-0.1382,-0.1362,-0.1365,-0.1408,-0.1411,-0.1414,-0.1467,-0.143,-0.1431,-0.1431,-0.1533,-0.1536,-0.1538,0,0,0,0,0,0,-0.1264,-0.1266,-0.1297,-0.129,-0.1294,-0.1324,-0.133,-0.1337,-0.1366,-0.1375,-0.1382,-0.1385,-0.1409,-0.1413,-0.1447,-0.1467,-0.1431,-0.1432,-0.1531,-0.1534,-0.1537,-0.1536,0,0,0,0,0,0,-0.1264,-0.1266,-0.1278,-0.1288,-0.1294,-0.1319,-0.1329,-0.1337,-0.1359,-0.1365,-0.1396,-0.14,-0.141,-0.1446,-0.1448,-0.1468,-0.1433,-0.1528,-0.1532,-0.1536,-0.1533,-0.1538,-0.1543,0,0,0,0,0,-0.1263,-0.1271,-0.1279,-0.1281,-0.1305,-0.1319,-0.1325,-0.1351,-0.136,-0.1379,-0.1408,-0.14,-0.1475,-0.1448,-0.145,-0.147,-0.1526,-0.1531,-0.1536,-0.1531,-0.1537,-0.1543,0,0,0,0,0,0,-0.1268,-0.1277,-0.1286,-0.1297,-0.1313,-0.1327,-0.1346,-0.1356,-0.1393,-0.1406,-0.1415,-0.1422,-0.1465,-0.1473,-0.1444,-0.152,-0.1504,-0.151,-0.1499,-0.1506,-0.1511,-0.1506,-0.1433,0,0,0,0,0,-0.1272,-0.1285,-0.1293,-0.1304,-0.1313,-0.1331,-0.1344,-0.1361,-0.1384,-0.1403,-0.1423,-0.1455,-0.1485,-0.1499,-0.1529,-0.1555,-0.1551,-0.1578,-0.1583,-0.1587,-0.159,-0.1607,-0.1612,-0.1555,-0.1555,-0.1555,0,0,-0.1276,-0.1282,-0.129,-0.1307,-0.1324,-0.1342,-0.1343,-0.1368,-0.1389,-0.1398,-0.1445,-0.1471,-0.15,-0.1542,-0.1562,-0.1549,-0.1602,-0.1593,-0.1596,-0.1597,-0.1612,-0.1617,-0.1622,-0.1558,-0.1558,-0.1557,0,0,-0.128,-0.1298,-0.131,-0.1325,-0.1346,-0.1361,-0.1367,-0.1394,-0.1417,-0.1455,-0.1477,-0.1512,-0.1556,-0.1579,-0.1594,-0.1644,-0.1632,-0.1667,-0.1679,-0.1695,-0.1698,-0.1702,-0.1692,-0.1694,-0.1664,-0.1664,-0.1664,0,-0.1288,-0.1299,-0.1316,-0.133,-0.1342,-0.1368,-0.1383,-0.1411,-0.1448,-0.1463,-0.1477,-0.1549,-0.1572,-0.1607,-0.1642,-0.1651,-0.1655,-0.1642,-0.1697,-0.17,-0.1703,-0.1693,-0.1695,-0.1665,-0.1665,-0.1665,-0.1665,0,-0.1293,-0.1314,-0.1322,-0.1351,-0.1371,-0.1389,-0.1417,-0.1449,-0.1477,-0.15,-0.1548,-0.1583,-0.1623,-0.1643,-0.166,-0.1702,-0.1695,-0.1698,-0.1668,-0.1708,-0.1695,-0.1698,-0.1666,-0.1665,-0.1665,-0.1665,0,0,-0.1272,-0.1318,-0.1323,-0.1338,-0.1382,-0.1392,-0.1435,-0.1469,-0.1492,-0.1539,-0.1566,-0.1627,-0.1647,-0.1669,-0.1689,-0.1709,-0.1737,-0.1723,-0.1723,-0.169,-0.176,-0.1603,-0.159,-0.1751,-0.1752,-0.1753,-0.1735,0,-0.127,-0.1298,-0.1324,-0.1356,-0.137,-0.1409,-0.1441,-0.148,-0.152,-0.156,-0.1593,-0.1637,-0.1655,-0.1681,-0.1705,-0.174,-0.1748,-0.174,-0.1747,-0.1747,-0.1583,-0.159,-0.1756,-0.1737,-0.1738,-0.1738,-0.1738,0,-0.1258,-0.1278,-0.1309,-0.135,-0.136,-0.1389,-0.1437,-0.147,-0.1532,-0.1561,-0.1605,-0.1643,-0.169,-0.17,-0.1747,-0.1746,-0.176,-0.1771,-0.177,-0.1625,-0.1595,-0.1696,-0.1743,-0.1742,-0.1742,-0.1742,-0.1742,0,-0.1216,-0.1262,-0.1286,-0.1301,-0.1357,-0.138,-0.1413,-0.1473,-0.15,-0.1567,-0.1591,-0.165,-0.1676,-0.1716,-0.1748,-0.1763,-0.178,-0.1795,-0.1654,-0.1642,-0.1789,-0.1786,-0.1816,-0.1816,-0.1816,-0.1816,-0.1816,0,-0.1185,-0.1203,-0.1271,-0.1281,-0.1305,-0.1356,-0.1391,-0.143,-0.1493,-0.1514,-0.159,-0.1599,-0.1687,-0.171,-0.1744,-0.1687,-0.1771,-0.1645,-0.1625,-0.1789,-0.1787,-0.1789,-0.1786,-0.1815,-0.1815,-0.1815,-0.1816,0,-0.1126,-0.1177,-0.1204,-0.1268,-0.1287,-0.1305,-0.1369,-0.1388,-0.1454,-0.1484,-0.1507,-0.1572,-0.1579,-0.163,-0.1677,-0.1643,-0.1633,-0.1591,-0.1741,-0.1731,-0.1489,-0.1487,-0.1433,-0.1427,-0.1422,-0.1418,-0.1415,0,-0.1095,-0.1107,-0.1181,-0.1195,-0.1225,-0.1263,-0.1283,-0.1358,-0.1376,-0.1443,-0.144,-0.1473,-0.1501,-0.1428,-0.1497,-0.1499,-0.1492,-0.1475,-0.1503,-0.1463,-0.145,-0.1455,-0.146,-0.1407,-0.1406,-0.1405,-0.1403,0,-0.1031,-0.1073,-0.1097,-0.1125,-0.1153,-0.1171,-0.1207,-0.1211,-0.1284,-0.136,-0.1335,-0.1333,-0.1313,-0.133,-0.1318,-0.1334,-0.1487,-0.1425,-0.1436,-0.1462,-0.1431,-0.1424,-0.1434,-0.1386,-0.1389,-0.139,-0.1391,0,-0.0987,-0.0987,-0.1028,-0.1036,-0.1067,-0.1056,-0.1094,-0.1101,-0.1129,-0.1216,-0.1199,-0.1232,-0.1291,-0.1239,-0.1243,-0.1222,-0.122,-0.1209,-0.1232,-0.1251,-0.1197,-0.1131,-0.0963,0,0,0,0,0,-0.0933,-0.0918,-0.0927,-0.093,-0.0954,-0.0964,-0.1025,-0.1068,-0.1146,-0.1096,-0.1147,-0.1126,-0.1098,-0.1118,-0.1059,-0.1154,-0.1223,-0.108,-0.1224,-0.1293,-0.1312,-0.1265,0,0,0,0,0,0,-0.0894,-0.0906,-0.0896,-0.0831,-0.0806,-0.0816,-0.0849,-0.091,-0.0893,-0.0983,-0.0975,-0.1043,-0.1034,-0.1104,-0.1027,-0.1033,-0.1098,-0.1111,-0.1108,-0.1282,-0.1299,-0.1315,-0.1273,0,0,0,0,0]},{"header":{"parameterUnit":"m.s-1","parameterCategory":2,"la1":30.2991,"la2":30.254,"lo1":-89.0895,"lo2":-89.0444,"dy":0.0017,"dx":0.0017,"nx":28,"ny":28,"refTime":"2023-08-03T09:00:00:Z","depth":"4","parameterNumber":3,"parameterNumberName":"V-component_of_CURRENTS"},"data":[0,0,0,0,0,0,0,0,0,0,0,0,0,0,0,0,0,0,0,0,0,0,0,0,0,0,0,0,0,0,0,0,0,0,0,0,0,0,0,0,0,0,0,0,0,0,0,0,0,0,0,0,0,0,0,0,0,0,-0.0065,-0.0065,0,-0.0044,-0.0044,-0.0044,-0.0009,-0.0008,-0.0008,-0.0007,0.0008,0.0007,0.0007,0,0,0,0,0,0,0,0,0,0,0,0,0,-0.0063,-0.0064,-0.0065,-0.0065,-0.0064,-0.0044,-0.0044,-0.0043,-0.0009,-0.0008,-0.0007,-0.0007,0.0008,0.0007,0.0007,0,0,0,0,0,0,0,0,0,0,0,0,0,-0.0056,-0.0064,-0.0065,-0.0044,-0.0042,-0.0044,-0.0044,-0.0043,-0.0009,-0.0008,-0.0007,-0.0006,0.0008,0.0007,0.0007,-0.0016,0,0,0.0006,0.0006,0,0,0,0,0,0,0,0,-0.0057,-0.0056,-0.0048,-0.0046,-0.0043,-0.0027,-0.0038,-0.0034,-0.001,-0.0023,-0.0007,-0.0006,-0.0005,-0.0004,-0.0004,-0.0016,-0.0015,0.0006,0.0005,0.0005,0.0005,0,0,0,0,0,0,0,-0.0057,-0.0057,-0.0057,-0.0047,-0.0045,-0.0032,-0.003,-0.0037,-0.0021,-0.0021,-0.0019,-0.0015,-0.0004,-0.0003,-0.0003,-0.0015,0.0006,0.0005,0.0005,0.0005,-0.0042,-0.0043,0,0,0,0,0,0,-0.006,-0.0058,-0.0058,-0.0057,-0.0047,-0.0033,-0.003,-0.0034,-0.002,-0.0017,-0.0016,-0.0014,-0.0003,-0.0003,-0.0002,-0.0041,0.0005,0.0005,0.0005,-0.0041,-0.0042,-0.0044,0,0,0,0,0,0,-0.0061,-0.0061,-0.0059,-0.0055,-0.0054,-0.0034,-0.0038,-0.0034,-0.0032,-0.0016,-0.0013,-0.0018,-0.0002,-0.0002,-0.0013,-0.0039,0.0005,0.0004,-0.004,-0.0042,-0.0043,-0.011,0,0,0,0,0,0,-0.0061,-0.0061,-0.0068,-0.0056,-0.0054,-0.0068,-0.0039,-0.0035,-0.0031,-0.0028,-0.0017,-0.0014,-0.0001,-0.0013,-0.0014,-0.0039,0.0004,-0.0039,-0.0041,-0.0043,-0.0107,-0.0114,-0.012,0,0,0,0,0,-0.0061,-0.008,-0.0069,-0.0069,-0.0064,-0.0069,-0.0068,-0.0049,-0.0033,-0.0042,-0.0031,-0.0014,-0.0025,-0.0014,-0.0015,-0.0041,-0.0038,-0.004,-0.0042,-0.0104,-0.0113,-0.012,0,0,0,0,0,0,-0.0088,-0.0078,-0.0065,-0.0081,-0.0077,-0.0063,-0.0069,-0.0055,-0.0054,-0.0049,-0.003,-0.0028,-0.0046,-0.0035,-0.0024,-0.0059,-0.0028,-0.0031,-0.0075,-0.0083,-0.0089,-0.0101,0.0004,0,0,0,0,0,-0.0096,-0.0105,-0.0092,-0.0106,-0.0104,-0.0087,-0.0086,-0.0074,-0.0069,-0.0066,-0.006,-0.0055,-0.0058,-0.0063,-0.0062,-0.0087,-0.006,-0.0103,-0.011,-0.0116,-0.0125,-0.0112,-0.0118,-0.0051,-0.0051,-0.0051,0,0,-0.0112,-0.0106,-0.0112,-0.0112,-0.0104,-0.012,-0.0084,-0.0089,-0.0106,-0.0067,-0.0093,-0.0078,-0.0068,-0.0092,-0.01,-0.0086,-0.0116,-0.0119,-0.0124,-0.013,-0.0115,-0.0121,-0.0127,-0.0053,-0.0052,-0.0052,0,0,-0.0148,-0.0141,-0.0158,-0.0159,-0.0152,-0.0146,-0.015,-0.0142,-0.014,-0.0159,-0.0135,-0.0139,-0.0146,-0.0147,-0.0147,-0.0193,-0.0149,-0.0189,-0.0238,-0.0225,-0.023,-0.0234,-0.0191,-0.0191,-0.0196,-0.0196,-0.0196,0,-0.0165,-0.0186,-0.0166,-0.0184,-0.0194,-0.0163,-0.0191,-0.0191,-0.019,-0.02,-0.0176,-0.0189,-0.0176,-0.0209,-0.0218,-0.021,-0.0179,-0.0209,-0.0233,-0.0237,-0.0241,-0.0195,-0.0194,-0.0199,-0.0199,-0.0199,-0.0198,0,-0.021,-0.023,-0.0243,-0.0256,-0.0268,-0.0286,-0.0281,-0.0293,-0.0283,-0.0282,-0.0303,-0.0283,-0.0289,-0.0287,-0.0265,-0.0291,-0.0252,-0.024,-0.0213,-0.0252,-0.02,-0.0198,-0.0205,-0.0203,-0.0202,-0.0201,0,0,-0.0236,-0.0268,-0.0273,-0.0297,-0.0307,-0.0324,-0.0356,-0.0379,-0.0403,-0.0395,-0.0425,-0.0423,-0.0398,-0.0396,-0.037,-0.0359,-0.0345,-0.0311,-0.0309,-0.0268,-0.0289,-0.0221,-0.0211,-0.0333,-0.0333,-0.0334,-0.0237,0,-0.0275,-0.033,-0.0337,-0.0398,-0.0426,-0.0422,-0.0459,-0.0476,-0.0477,-0.0497,-0.0475,-0.0488,-0.0445,-0.0442,-0.0427,-0.0367,-0.0345,-0.0371,-0.0258,-0.0254,-0.0191,-0.021,-0.0335,-0.0235,-0.0234,-0.0234,-0.0234,0,-0.0313,-0.0347,-0.0412,-0.0472,-0.0484,-0.052,-0.0568,-0.0594,-0.061,-0.0607,-0.0609,-0.0581,-0.0569,-0.052,-0.0444,-0.0458,-0.0381,-0.0327,-0.0322,-0.0238,-0.0184,-0.0192,-0.0229,-0.0229,-0.023,-0.023,-0.023,0,-0.0336,-0.0401,-0.0458,-0.0477,-0.0536,-0.0572,-0.0601,-0.0631,-0.0658,-0.0671,-0.068,-0.066,-0.0642,-0.0563,-0.0442,-0.0442,-0.0338,-0.0324,-0.0191,-0.0183,-0.0242,-0.0239,-0.027,-0.027,-0.027,-0.0271,-0.0271,0,-0.0373,-0.042,-0.0476,-0.0508,-0.0584,-0.0609,-0.0677,-0.07,-0.0727,-0.0757,-0.0734,-0.0732,-0.0652,-0.0578,-0.0464,-0.0311,-0.0351,-0.0199,-0.0162,-0.0269,-0.027,-0.0239,-0.0236,-0.0267,-0.0268,-0.0269,-0.0269,0,-0.0392,-0.0426,-0.0498,-0.057,-0.0598,-0.065,-0.0721,-0.0762,-0.0781,-0.0813,-0.0817,-0.0788,-0.068,-0.0572,-0.0433,-0.0336,-0.0199,-0.0132,-0.0236,-0.0206,-0.0045,-0.0048,0.0017,0.002,0.0022,0.0024,0.0026,0,-0.0408,-0.0444,-0.0536,-0.0583,-0.0622,-0.0694,-0.0743,-0.0784,-0.0813,-0.083,-0.0838,-0.0769,-0.072,-0.0472,-0.0359,-0.0141,-0.0107,-0.004,-0.0065,-0.0049,-0.002,-0.0026,-0.0032,0.003,0.0031,0.0032,0.0032,0,-0.0437,-0.0467,-0.0524,-0.0614,-0.068,-0.0752,-0.0814,-0.0832,-0.0863,-0.0884,-0.0826,-0.0718,-0.0594,-0.0433,-0.0266,-0.0112,-0.0093,-0.0013,-0.0018,-0.004,-0.0032,-0.0007,-0.0015,0.0041,0.004,0.0039,0.0038,0,-0.0453,-0.0496,-0.0565,-0.0642,-0.0725,-0.0786,-0.0818,-0.0831,-0.0851,-0.0847,-0.0818,-0.0698,-0.0642,-0.0414,-0.0256,-0.0103,-0.0065,-0.0024,-0.0028,-0.0036,-0.0082,-0.0081,0.0007,0,0,0,0,0,-0.0467,-0.0514,-0.0589,-0.0677,-0.0754,-0.0799,-0.0858,-0.0875,-0.0889,-0.0836,-0.0821,-0.0689,-0.0463,-0.0384,-0.0212,-0.0214,-0.0051,-0.001,-0.0009,0.009,0.008,0.0041,0,0,0,0,0,0,-0.0483,-0.055,-0.0586,-0.0681,-0.0739,-0.0824,-0.0857,-0.0868,-0.0825,-0.0815,-0.0691,-0.064,-0.042,-0.0554,-0.0208,-0.0167,-0.014,0.0087,0.0091,0.0096,0.0087,0.0078,0.0035,0,0,0,0,0]}]]